User: anonymous   Login
Location: Pel�-Koumbol�
(14.9505°N, 3.0798°W)
Time: 07:27:41
(UTC+00:00)
Language:

STARLINK-1037 - Orbit

View from above orbital plane
View from above orbital plane
View from above satellite
View from above satellite

Ground track
Ground track

The orbit data is extracted from the following two-line orbital elements,

1 44742U 19074AF  20156.81266389 +.00001380 +00000-0 +11275-3 0  9990
2 44742 052.9999 291.1292 0001626 070.4351 289.6813 15.05966870031386
Epoch (UTC): 04 June 2020 19:30:14
Eccentricity: 0.0001626
inclination: 52.9999°
perigee height: 547 km
apogee height: 549 km
right ascension of ascending node: 291.1292°
argument of perigee: 70.4351°
revolutions per day: 15.05966870
mean anomaly at epoch: 289.6813°
orbit number at epoch: 3138

The dashed part of the orbit path shows where the satellite is in the earth's shadow,  

DLR